Findlay, OH

9:08 AM EDT on April 25, 2017 (GMT -0400)
Findlay

Weather History for KFDY - October, 2012

Change the Weather History Date:

Tuesday, October 30, 2012

  Actual Average Record
Temperature  
Mean Temperature 36 °F -  
Max Temperature 39 °F 57 °F 75 °F (1950)
Min Temperature 33 °F 37 °F 24 °F (1988)
Degree Days  
Heating Degree Days 29    
Moisture  
Dew Point 33 °F    
Average Humidity 89    
Maximum Humidity 100    
Minimum Humidity 81    
Precipitation  
Precipitation 0.50 in - - ()
Sea Level Pressure  
Sea Level Pressure 29.50 in    
Wind  
Wind Speed 21 mph (NW)    
Max Wind Speed 28 mph    
Max Gust Speed 40 mph    
Visibility 6 miles    
Events Rain , Snow    
Averages and records for this station are not official NWS values.
T = Trace of Precipitation, MM = Missing Value Source: NWS Daily Summary

Daily Weather History Graph

Daily Weather History Graph

Search for Another Location

Airport or City:

Trip Planner

Search our weather history database for the weather conditions in past years. The results will help you decide how hot, cold, wet, or windy it might be!

Date:

Astronomy

Oct. 30, 2012 Rise Set
Actual Time 8:03 AM EDT 6:32 PM EDT
Civil Twilight 7:35 AM EDT 7:00 PM EDT
Nautical Twilight 7:02 AM EDT 7:33 PM EDT
Astronomical Twilight 6:30 AM EDT 8:05 PM EDT
Moon 7:00 PM EDT (10/30) 8:50 AM EDT (10/30)
Length of Visible Light 11h 25m
Length of Day
10h 28m
Full, 99% of the Moon is Illuminated
Oct 30
Full
Nov 6
Last Quarter
Nov 13
New
Nov 20
First Quarter
Nov 28
Full

Hourly Weather History & Observations

Time (EDT) Temp. Windchill Dew Point Humidity Pressure Visibility Wind Dir Wind Speed Gust Speed Precip Events Conditions
12:45 AM 35.6 °F 23.2 °F 30.2 °F 81% 29.64 in 2.0 mi NNW 26.5 mph 40.3 mph 0.00 in Snow Light Snow
12:53 AM 35.1 °F 23.0 °F 30.0 °F 82% 29.64 in 2.0 mi NNW 24.2 mph 38.0 mph 0.01 in Snow Light Snow
1:34 AM 33.8 °F 21.3 °F 30.2 °F 87% 29.59 in 5.0 mi NW 24.2 mph 33.4 mph 0.01 in Snow Light Snow
1:41 AM 33.8 °F 22.2 °F 30.2 °F 87% 29.58 in 9.0 mi NW 20.7 mph 32.2 mph 0.01 in Snow Light Snow
1:53 AM 35.1 °F 24.1 °F 30.9 °F 85% 29.58 in 9.0 mi NW 19.6 mph 35.7 mph 0.01 in Snow Light Snow
2:31 AM 35.6 °F 24.8 °F 30.2 °F 81% 29.57 in 9.0 mi NW 19.6 mph 28.8 mph 0.01 in Snow Light Snow
3:53 AM 34.0 °F 21.8 °F 30.0 °F 85% 29.52 in 8.0 mi NW 23.0 mph 34.5 mph 0.05 in Rain Light Rain
4:53 AM 33.1 °F 19.6 °F 30.9 °F 92% 29.49 in 7.0 mi NW 27.6 mph 39.1 mph 0.07 in Rain Light Rain
5:53 AM 34.0 °F 22.4 °F 30.9 °F 89% 29.49 in 8.0 mi NW 20.7 mph 32.2 mph 0.05 in Rain Light Rain
6:53 AM 33.1 °F 20.9 °F 30.9 °F 92% 29.48 in 4.0 mi NW 21.9 mph 31.1 mph 0.05 in Snow Light Snow
7:31 AM 33.8 °F 22.5 °F 30.2 °F 87% 29.46 in 2.5 mi NW 19.6 mph 26.5 mph 0.03 in Snow Light Snow
7:40 AM 33.8 °F 22.5 °F 30.2 °F 87% 29.46 in 3.0 mi NW 19.6 mph 27.6 mph 0.04 in Snow Light Snow
7:53 AM 33.1 °F 22.6 °F 30.9 °F 92% 29.47 in 2.5 mi NW 16.1 mph 25.3 mph 0.05 in Snow Light Snow
7:59 AM 33.8 °F 22.5 °F 30.2 °F 87% 29.46 in 1.8 mi NW 19.6 mph 28.8 mph 0.00 in Snow Light Snow
8:07 AM 33.8 °F 22.5 °F 30.2 °F 87% 29.45 in 2.5 mi NW 19.6 mph 31.1 mph 0.01 in Snow Light Snow
8:14 AM 33.8 °F 21.6 °F 30.2 °F 87% 29.45 in 6.0 mi NW 23.0 mph 28.8 mph 0.02 in Snow Light Snow
8:53 AM 34.0 °F 23.4 °F 32.0 °F 92% 29.46 in 3.0 mi NW 17.3 mph 26.5 mph 0.04 in Snow Light Snow
9:03 AM 33.8 °F 22.8 °F 32.0 °F 93% 29.45 in 2.5 mi NW 18.4 mph - 0.01 in Snow Light Snow
9:21 AM 33.8 °F 23.2 °F 32.0 °F 93% 29.45 in 4.0 mi NW 17.3 mph 26.5 mph 0.02 in Snow Light Snow
9:53 AM 34.0 °F 22.4 °F 32.0 °F 92% 29.45 in 7.0 mi NNW 20.7 mph 32.2 mph 0.05 in Rain Light Rain
10:53 AM 34.0 °F 22.4 °F 32.0 °F 92% 29.44 in 3.0 mi NNW 20.7 mph 29.9 mph 0.02 in   Overcast
11:53 AM 35.1 °F 24.5 °F 33.1 °F 92% 29.44 in 5.0 mi NNW 18.4 mph 27.6 mph 0.00 in   Overcast
12:53 PM 37.0 °F 27.0 °F 34.0 °F 89% 29.44 in 10.0 mi NNW 18.4 mph 24.2 mph N/A   Overcast
1:53 PM 39.0 °F 29.9 °F 35.1 °F 86% 29.43 in 10.0 mi NNW 17.3 mph 26.5 mph N/A   Overcast
2:21 PM 39.2 °F 30.2 °F 35.6 °F 87% 29.43 in 10.0 mi NW 17.3 mph 28.8 mph N/A   Overcast
2:53 PM 39.9 °F 31.4 °F 35.1 °F 83% 29.44 in 10.0 mi NW 16.1 mph 28.8 mph N/A   Overcast
3:18 PM 39.2 °F 30.5 °F 35.6 °F 87% 29.43 in 3.0 mi NNW 16.1 mph 27.6 mph 0.00 in Rain Light Rain
3:53 PM 39.0 °F 29.6 °F 36.0 °F 89% 29.45 in 3.0 mi NW 18.4 mph 26.5 mph 0.00 in Rain Light Rain
4:53 PM 39.9 °F 30.2 °F 36.0 °F 86% 29.46 in 10.0 mi NW 20.7 mph 27.6 mph 0.00 in   Overcast
5:53 PM 39.9 °F 31.4 °F 36.0 °F 86% 29.49 in 10.0 mi NW 16.1 mph 24.2 mph N/A   Overcast
6:53 PM 39.0 °F 30.3 °F 36.0 °F 89% 29.51 in 5.0 mi NW 16.1 mph 26.5 mph 0.01 in Rain Light Rain
7:00 PM 39.2 °F 30.5 °F 35.6 °F 87% 29.50 in 4.0 mi NW 16.1 mph 26.5 mph 0.00 in Rain Light Rain
7:10 PM 37.4 °F 28.5 °F 37.4 °F 100% 29.51 in 3.0 mi NW 15.0 mph - 0.01 in Rain Light Rain
8:14 PM 37.4 °F 27.2 °F 35.6 °F 93% 29.53 in 3.0 mi NW 19.6 mph 24.2 mph 0.01 in Snow Light Snow
8:21 PM 37.4 °F 27.5 °F 35.6 °F 93% 29.53 in 2.5 mi NW 18.4 mph 25.3 mph 0.01 in Snow Light Snow
8:37 PM 37.4 °F 27.8 °F 35.6 °F 93% 29.53 in 4.0 mi NW 17.3 mph 26.5 mph 0.02 in Snow Light Snow
8:53 PM 37.9 °F 28.2 °F 36.0 °F 93% 29.54 in 6.0 mi NW 18.4 mph 24.2 mph 0.04 in Snow Light Snow
9:44 PM 37.4 °F 28.2 °F 35.6 °F 93% 29.53 in 10.0 mi NW 16.1 mph 24.2 mph 0.01 in Rain Light Rain
9:53 PM 37.9 °F 29.6 °F 35.1 °F 89% 29.55 in 10.0 mi NW 13.8 mph 20.7 mph 0.02 in Rain Light Rain
10:53 PM 37.0 °F 27.4 °F 35.1 °F 93% 29.55 in 6.0 mi NW 17.3 mph 24.2 mph 0.02 in Rain Light Rain
11:53 PM 37.0 °F 27.7 °F 35.1 °F 93% 29.55 in 3.0 mi WNW 16.1 mph 25.3 mph 0.01 in   Overcast